(44) Nysa
(44) Nysa
Epoch 2008 Nov. 30.0 TT = JDT 2454800.5 Goffin
M 170.71226 (2000.0) P Q
n 0.26094255 Peri. 342.75080 -0.41245418 -0.90969565
a 2.4253408 Node 131.57916 +0.84324156 -0.40132132
e 0.1476569 Incl. 3.70407 +0.34471035 -0.10674746
P 3.78 H 7.03 G 0.46 U 0
From 1410 observations at 81 oppositions, 1857-2000, mean residual 0".52.
An explanation of the orbital
elements is available.These orbital elements are also available in forms suitable for loading into a number of popular planetarium-type software programs.
Personalized ephemerides for this object (and others) can be generated using the MPES.
Date TT R. A. (2000) Decl. Delta r Elong. Phase V 2009 06 10 23 15.14 -05 52.5 2.489 2.716 91.7 21.9 11.9 2009 06 15 23 18.92 -05 35.0 2.419 2.712 95.5 21.9 11.8 2009 06 20 23 22.32 -05 20.2 2.349 2.708 99.4 21.7 11.7 2009 06 25 23 25.30 -05 08.4 2.280 2.703 103.4 21.5 11.7 2009 06 30 23 27.82 -04 59.8 2.211 2.698 107.6 21.0 11.6 2009 07 05 23 29.86 -04 54.6 2.145 2.694 111.8 20.5 11.5 2009 07 10 23 31.40 -04 53.0 2.080 2.689 116.2 19.8 11.4 2009 07 15 23 32.39 -04 55.3 2.017 2.684 120.8 19.0 11.3 2009 07 20 23 32.82 -05 01.6 1.958 2.679 125.5 18.0 11.2 2009 07 25 23 32.64 -05 12.0 1.901 2.673 130.4 16.8 11.1 2009 07 30 23 31.86 -05 26.6 1.848 2.668 135.4 15.5 11.0 2009 08 04 23 30.46 -05 45.2 1.799 2.663 140.6 14.0 11.0 2009 08 09 23 28.46 -06 07.6 1.755 2.657 146.0 12.3 10.9 2009 08 14 23 25.89 -06 33.7 1.716 2.651 151.5 10.5 10.7 2009 08 19 23 22.77 -07 03.0 1.683 2.645 157.2 8.5 10.6 2009 08 24 23 19.17 -07 34.8 1.656 2.639 162.9 6.4 10.5 2009 08 29 23 15.18 -08 08.3 1.636 2.633 168.7 4.3 10.4 2009 09 03 23 10.92 -08 42.8 1.622 2.627 174.2 2.2 10.3 2009 09 08 23 06.49 -09 17.2 1.615 2.621 176.5 1.4 10.3 2009 09 13 23 02.02 -09 50.7 1.615 2.615 171.9 3.1 10.4 2009 09 18 22 57.64 -10 22.4 1.621 2.608 166.1 5.3 10.4 2009 09 23 22 53.50 -10 51.4 1.635 2.602 160.3 7.5 10.5 2009 09 28 22 49.70 -11 16.9 1.655 2.595 154.4 9.6 10.6 2009 10 03 22 46.37 -11 38.6 1.681 2.588 148.6 11.6 10.7 2009 10 08 22 43.58 -11 56.0 1.712 2.581 143.0 13.5 10.8 2009 10 13 22 41.39 -12 09.0 1.749 2.575 137.5 15.2 10.8 2009 10 18 22 39.85 -12 17.4 1.790 2.568 132.2 16.7 10.9 2009 10 23 22 38.98 -12 21.2 1.835 2.560 127.0 18.1 11.0 2009 10 28 22 38.79 -12 20.5 1.884 2.553 122.0 19.3 11.1 2009 11 02 22 39.28 -12 15.5 1.935 2.546 117.1 20.3 11.2 2009 11 07 22 40.41 -12 06.4 1.989 2.539 112.5 21.1 11.2 2009 11 12 22 42.16 -11 53.4 2.045 2.531 107.9 21.8 11.3 2009 11 17 22 44.51 -11 36.7 2.102 2.524 103.5 22.4 11.4 2009 11 22 22 47.42 -11 16.5 2.160 2.516 99.3 22.8 11.4 2009 11 27 22 50.86 -10 53.0 2.219 2.509 95.2 23.1 11.5